Weather History for Baudette, MN

Change the Weather History Date:

Friday, November 30, 2012

  Actual Average Record
Temperature  
Mean Temperature 20 °F -  
Max Temperature 28 °F 28 °F 51 °F (1939)
Min Temperature 12 °F 10 °F -26 °F (1964)
Degree Days  
Heating Degree Days 45    
Moisture  
Dew Point 16 °F    
Average Humidity 86    
Maximum Humidity 92    
Minimum Humidity 81    
Precipitation  
Precipitation 0.00 in - - ()
Sea Level Pressure  
Sea Level Pressure 30.18 in    
Wind  
Wind Speed 9 mph (SE)    
Max Wind Speed 13 mph    
Max Gust Speed 20 mph    
Visibility 8 miles    
Events Snow    
Averages and records for this station are not official NWS values.
T = Trace of Precipitation, MM = Missing Value Source: NWS Daily Summary

Daily Weather History Graph

Daily Weather History Graph

Search for Another Location

Airport:

Trip Planner

Search our weather history database for the weather conditions in past years. The results will help you decide how hot, cold, wet, or windy it might be!

Date:

Astronomy

Nov. 30, 2012 Rise Set
Actual Time 7:49 AM CST 4:24 PM CST
Civil Twilight 7:13 AM CST 5:01 PM CST
Nautical Twilight 6:33 AM CST 5:40 PM CST
Astronomical Twilight 5:55 AM CST 6:18 PM CST
Moon 6:21 PM CST (11/30) 9:21 AM CST (11/30)
Length of Visible Light 9h 47m
Length of Day
8h 35m
Waning Gibbous, 96% of the Moon is Illuminated
Nov 30
Waning Gibbous
Dec 6
Last Quarter
Dec 13
New
Dec 19
First Quarter
Dec 28
Full

Hourly Weather History & Observations

Time (CST) Temp. Windchill Dew Point Humidity Pressure Visibility Wind Dir Wind Speed Gust Speed Precip Events Conditions
12:03 AM 12.2 °F -1.0 °F 8.6 °F 85% 30.26 in 1.2 mi East 10.4 mph - 0.00 in Snow Light Snow
12:10 AM 12.2 °F -1.0 °F 8.6 °F 85% 30.26 in 1.5 mi East 10.4 mph - 0.00 in Snow Light Snow
12:18 AM 12.2 °F -2.5 °F 8.6 °F 85% 30.26 in 2.0 mi East 12.7 mph - 0.00 in Snow Light Snow
12:53 AM 12.9 °F -0.9 °F 9.0 °F 84% 30.32 in 2.0 mi East 11.5 mph - 0.00 in Snow Light Snow
1:07 AM 12.2 °F -0.2 °F 8.6 °F 85% 30.25 in 1.8 mi East 9.2 mph - 0.00 in Snow Light Snow
1:53 AM 12.9 °F -0.2 °F 10.0 °F 88% 30.31 in 2.5 mi ESE 10.4 mph - 0.00 in Snow Light Snow
1:59 AM 12.2 °F -1.0 °F 10.4 °F 92% 30.23 in 3.0 mi East 10.4 mph - 0.00 in Snow Light Snow
2:16 AM 14.0 °F 2.0 °F 10.4 °F 86% 30.23 in 6.0 mi East 9.2 mph - 0.00 in   Overcast
2:53 AM 14.0 °F 2.0 °F 10.0 °F 84% 30.30 in 10.0 mi East 9.2 mph - 0.00 in   Overcast
3:53 AM 14.0 °F 2.9 °F 10.9 °F 88% 30.29 in 10.0 mi East 8.1 mph - N/A   Overcast
4:53 AM 15.1 °F 4.2 °F 10.9 °F 84% 30.28 in 10.0 mi East 8.1 mph - N/A   Overcast
5:53 AM 15.1 °F 4.2 °F 12.0 °F 88% 30.28 in 10.0 mi ESE 8.1 mph - N/A   Overcast
6:53 AM 16.0 °F 3.6 °F 12.0 °F 84% 30.25 in 10.0 mi ESE 10.4 mph - N/A   Overcast
7:53 AM 16.0 °F 6.3 °F 12.0 °F 84% 30.26 in 10.0 mi SE 6.9 mph - N/A   Overcast
8:53 AM 17.1 °F 7.6 °F 12.9 °F 84% 30.25 in 10.0 mi ESE 6.9 mph - N/A   Overcast
9:53 AM 18.0 °F 9.8 °F 12.9 °F 81% 30.25 in 10.0 mi SE 5.8 mph - N/A   Overcast
10:53 AM 19.0 °F 11.1 °F 15.1 °F 85% 30.25 in 10.0 mi SE 5.8 mph - N/A   Overcast
11:53 AM 21.0 °F 12.4 °F 17.1 °F 85% 30.19 in 10.0 mi SE 6.9 mph - N/A   Overcast
12:53 PM 23.0 °F 18.4 °F 19.0 °F 85% 30.18 in 10.0 mi SSE 3.5 mph - N/A   Overcast
1:53 PM 25.0 °F 20.7 °F 21.0 °F 85% 30.18 in 10.0 mi SSE 3.5 mph - N/A   Overcast
2:53 PM 26.1 °F 18.4 °F 21.0 °F 81% 30.14 in 10.0 mi SE 6.9 mph - N/A   Overcast
3:53 PM 26.1 °F 18.4 °F 21.9 °F 84% 30.11 in 10.0 mi SE 6.9 mph - N/A   Overcast
4:53 PM 26.1 °F 18.4 °F 23.0 °F 88% 30.08 in 10.0 mi ESE 6.9 mph - N/A   Overcast
5:53 PM 27.0 °F 18.7 °F 23.0 °F 85% 30.07 in 10.0 mi ESE 8.1 mph - N/A   Overcast
6:53 PM 28.0 °F 20.8 °F 25.0 °F 88% 30.05 in 10.0 mi SE 6.9 mph - N/A   Overcast
7:53 PM 28.9 °F 21.9 °F 26.1 °F 89% 30.02 in 10.0 mi SSE 6.9 mph 16.1 mph N/A   Overcast
8:53 PM 28.9 °F 21.1 °F 26.1 °F 89% 30.00 in 8.0 mi SSE 8.1 mph 16.1 mph N/A   Overcast
9:53 PM 28.9 °F 20.4 °F 26.1 °F 89% 29.98 in 7.0 mi SSE 9.2 mph - N/A   Overcast
10:53 PM 28.9 °F 19.2 °F 26.1 °F 89% 29.99 in 7.0 mi South 11.5 mph 19.6 mph N/A   Overcast
11:53 PM 28.9 °F 19.8 °F 27.0 °F 92% 29.96 in 6.0 mi SSE 10.4 mph 17.3 mph N/A   Overcast